UTA1138 UWKD-USCM

Flight info

Callsign UTA1138
Flight time 1h 0m
Altitude 35000
Route INTAR T788 NAMUD L994 BATAL
Aircraft B736/M-SDE2E3FGHIRWXY/LB1

Departure

Time 2026-05-04 18:26
Airport Kazan International Airport (UWKD)

Arrival

Time 2026-05-04 19:26
Airport Magnitogorsk International Airport (USCM)
Time Latitude Longitude Altitude Speed Heading
2026-05-04 17:56 55.60711 49.29599 415 ft 0 kts 34°
2026-05-04 18:18 55.60712 49.29599 415 ft 1 kts 34°
2026-05-04 18:19 55.60770 49.29588 411 ft 6 kts 309°
2026-05-04 18:19 55.60793 49.29528 415 ft 7 kts 303°
2026-05-04 18:19 55.60810 49.29444 413 ft 8 kts 259°
2026-05-04 18:20 55.60771 49.29376 412 ft 8 kts 213°
2026-05-04 18:20 55.60719 49.29316 415 ft 10 kts 213°
2026-05-04 18:20 55.60657 49.29240 415 ft 12 kts 214°
2026-05-04 18:20 55.60591 49.29136 411 ft 14 kts 237°
2026-05-04 18:21 55.60578 49.28963 415 ft 15 kts 274°
2026-05-04 18:21 55.60586 49.28766 415 ft 17 kts 276°
2026-05-04 18:21 55.60614 49.28560 415 ft 18 kts 300°
2026-05-04 18:21 55.60687 49.28370 415 ft 19 kts 305°
2026-05-04 18:22 55.60765 49.28165 415 ft 21 kts 303°
2026-05-04 18:22 55.60847 49.27951 413 ft 21 kts 306°
2026-05-04 18:22 55.60927 49.27749 409 ft 19 kts 305°
2026-05-04 18:22 55.61004 49.27551 414 ft 20 kts 303°
2026-05-04 18:23 55.61079 49.27355 411 ft 19 kts 305°
2026-05-04 18:23 55.61153 49.27167 409 ft 18 kts 304°
2026-05-04 18:23 55.61214 49.27008 410 ft 10 kts 298°
2026-05-04 18:23 55.61198 49.26902 409 ft 10 kts 219°
2026-05-04 18:24 55.61140 49.26833 417 ft 10 kts 214°
2026-05-04 18:24 55.61083 49.26763 413 ft 6 kts 216°
2026-05-04 18:24 55.61061 49.26753 414 ft 3 kts 149°
2026-05-04 18:24 55.61052 49.26775 415 ft 0 kts 123°
2026-05-04 18:25 55.61051 49.26779 415 ft 6 kts 123°
2026-05-04 18:25 55.60865 49.27258 412 ft 89 kts 124°
2026-05-04 18:25 55.60383 49.28494 421 ft 155 kts 123°
2026-05-04 18:26 55.59766 49.30179 1020 ft 161 kts 124°
2026-05-04 18:26 55.59155 49.31771 2041 ft 159 kts 127°
2026-05-04 18:26 55.58493 49.33415 2771 ft 168 kts 131°
2026-05-04 18:26 55.57769 49.35082 3695 ft 173 kts 130°
2026-05-04 18:27 55.57022 49.36847 4403 ft 191 kts 127°
2026-05-04 18:27 55.56200 49.38976 4742 ft 227 kts 124°
2026-05-04 18:27 55.55272 49.41459 5077 ft 254 kts 124°
2026-05-04 18:27 55.54090 49.44009 5513 ft 280 kts 135°
2026-05-04 18:28 55.52679 49.46437 6462 ft 286 kts 137°
2026-05-04 18:28 55.51224 49.48860 7039 ft 290 kts 136°
2026-05-04 18:28 55.49748 49.51319 8085 ft 293 kts 136°
2026-05-04 18:28 55.48268 49.53809 9196 ft 296 kts 135°
2026-05-04 18:29 55.46772 49.56346 10206 ft 301 kts 135°
2026-05-04 18:29 55.45253 49.58931 11152 ft 306 kts 135°
2026-05-04 18:29 55.43718 49.61550 12166 ft 310 kts 135°
2026-05-04 18:29 55.42160 49.64219 13180 ft 315 kts 135°
2026-05-04 18:30 55.38978 49.69661 15002 ft 324 kts 135°
2026-05-04 18:30 55.37343 49.72455 15880 ft 330 kts 135°
2026-05-04 18:30 55.35682 49.75290 16758 ft 336 kts 135°
2026-05-04 18:31 55.33988 49.78178 17660 ft 342 kts 135°
2026-05-04 18:31 55.32264 49.81111 18488 ft 348 kts 135°
2026-05-04 18:31 55.30518 49.84095 19261 ft 353 kts 133°
2026-05-04 18:31 55.29116 49.87639 20019 ft 356 kts 113°
2026-05-04 18:32 55.28093 49.91616 20844 ft 360 kts 111°
2026-05-04 18:32 55.27102 49.95689 21629 ft 366 kts 110°
2026-05-04 18:32 55.26102 49.99834 22427 ft 372 kts 110°
2026-05-04 18:32 55.25081 50.04037 23238 ft 378 kts 111°
2026-05-04 18:33 55.24046 50.08242 23959 ft 383 kts 111°
2026-05-04 18:33 55.22977 50.12542 24693 ft 387 kts 111°
2026-05-04 18:33 55.21891 50.16880 25446 ft 390 kts 111°
2026-05-04 18:33 55.20790 50.21253 26176 ft 394 kts 111°
2026-05-04 18:34 55.19676 50.25666 26810 ft 402 kts 111°
2026-05-04 18:34 55.18517 50.30250 26960 ft 421 kts 111°
2026-05-04 18:34 55.17305 50.35037 27120 ft 439 kts 111°
2026-05-04 18:34 55.16048 50.39978 27482 ft 449 kts 111°
2026-05-04 18:35 55.14770 50.44986 28095 ft 452 kts 111°
2026-05-04 18:35 55.13482 50.50014 28770 ft 454 kts 111°
2026-05-04 18:35 55.12185 50.55071 29377 ft 457 kts 111°
2026-05-04 18:35 55.10878 50.60159 29928 ft 461 kts 111°
2026-05-04 18:36 55.09560 50.65286 30383 ft 465 kts 112°
2026-05-04 18:36 55.08228 50.70454 30824 ft 468 kts 112°
2026-05-04 18:36 55.06888 50.75646 31269 ft 470 kts 112°
2026-05-04 18:36 55.05541 50.80845 31825 ft 470 kts 112°
2026-05-04 18:37 55.04259 50.86066 32451 ft 467 kts 109°
2026-05-04 18:37 55.03146 50.91365 33029 ft 465 kts 108°
2026-05-04 18:37 55.02098 50.96695 33538 ft 465 kts 107°
2026-05-04 18:37 55.01070 51.02038 34009 ft 465 kts 107°
2026-05-04 18:38 55.00038 51.07381 34435 ft 465 kts 108°
2026-05-04 18:38 54.98997 51.12704 34849 ft 465 kts 108°
2026-05-04 18:38 54.97939 51.18041 34908 ft 467 kts 108°
2026-05-04 18:39 54.95800 51.28671 34928 ft 464 kts 109°
2026-05-04 18:39 54.93665 51.39177 34941 ft 464 kts 109°
2026-05-04 18:40 54.91507 51.49748 34940 ft 464 kts 109°
2026-05-04 18:40 54.89340 51.60312 34936 ft 464 kts 109°
2026-05-04 18:41 54.87164 51.70866 34929 ft 464 kts 109°
2026-05-04 18:41 54.84978 51.81413 34934 ft 464 kts 109°
2026-05-04 18:42 54.82784 51.91948 34940 ft 464 kts 110°
2026-05-04 18:42 54.80581 52.02467 34936 ft 464 kts 110°
2026-05-04 18:43 54.78370 52.12981 34940 ft 464 kts 110°
2026-05-04 18:43 54.76149 52.23473 34938 ft 464 kts 110°
2026-05-04 18:44 54.73918 52.33958 34935 ft 464 kts 110°
2026-05-04 18:44 54.71683 52.44419 34942 ft 463 kts 110°
2026-05-04 18:45 54.69440 52.54865 34941 ft 463 kts 110°
2026-05-04 18:45 54.67189 52.65300 34946 ft 463 kts 110°
2026-05-04 18:46 54.64943 52.75665 34946 ft 464 kts 110°
2026-05-04 18:46 54.62944 52.86243 34951 ft 464 kts 105°
2026-05-04 18:47 54.61318 52.97006 34948 ft 464 kts 104°
2026-05-04 18:47 54.59689 53.07781 34949 ft 464 kts 104°
2026-05-04 18:48 54.58016 53.18539 34940 ft 464 kts 105°
2026-05-04 18:48 54.56321 53.29284 34942 ft 465 kts 105°
2026-05-04 18:49 54.54619 53.40019 34948 ft 465 kts 105°
2026-05-04 18:49 54.52908 53.50753 34951 ft 465 kts 105°
2026-05-04 18:50 54.51191 53.61479 34941 ft 465 kts 105°
2026-05-04 18:50 54.49471 53.72194 34934 ft 465 kts 105°
2026-05-04 18:51 54.47743 53.82896 34935 ft 465 kts 105°
2026-05-04 18:51 54.46003 53.93598 34937 ft 464 kts 105°
2026-05-04 18:52 54.44256 54.04279 34951 ft 464 kts 105°
2026-05-04 18:52 54.42511 54.14887 34941 ft 464 kts 105°
2026-05-04 18:53 54.40745 54.25548 34931 ft 464 kts 106°
2026-05-04 18:53 54.38972 54.36202 34947 ft 464 kts 106°
2026-05-04 18:54 54.37188 54.46846 34938 ft 464 kts 106°
2026-05-04 18:54 54.35684 54.55745 34938 ft 464 kts 106°
2026-05-04 18:55 54.33882 54.66358 34931 ft 464 kts 106°
2026-05-04 18:55 54.31163 54.82266 34931 ft 464 kts 107°
2026-05-04 18:56 54.29353 54.92778 34942 ft 464 kts 107°
2026-05-04 18:56 54.27520 55.03362 34932 ft 464 kts 107°
2026-05-04 18:57 54.25680 55.13928 34939 ft 463 kts 107°
2026-05-04 18:57 54.23831 55.24479 34936 ft 463 kts 107°
2026-05-04 18:58 54.21972 55.35031 34920 ft 464 kts 108°
2026-05-04 18:58 54.20107 55.45564 34931 ft 463 kts 108°
2026-05-04 18:59 54.18224 55.56080 34928 ft 463 kts 108°
2026-05-04 18:59 54.16330 55.66576 34926 ft 463 kts 108°
2026-05-04 19:00 54.14429 55.77062 34923 ft 462 kts 108°
2026-05-04 19:00 54.12523 55.87531 34926 ft 462 kts 109°
2026-05-04 19:01 54.10608 55.97982 34932 ft 462 kts 109°
2026-05-04 19:01 54.08685 56.08426 34923 ft 462 kts 109°
2026-05-04 19:02 54.06753 56.18856 34927 ft 462 kts 109°
2026-05-04 19:02 54.04814 56.29263 34929 ft 461 kts 110°
2026-05-04 19:03 54.02876 56.39613 34580 ft 466 kts 110°
2026-05-04 19:03 54.01888 56.44863 33924 ft 466 kts 110°
2026-05-04 19:03 54.00898 56.50116 33073 ft 466 kts 110°
2026-05-04 19:04 53.99906 56.55364 32263 ft 466 kts 110°
2026-05-04 19:04 53.98920 56.60570 31728 ft 459 kts 111°
2026-05-04 19:04 53.97945 56.65709 31138 ft 454 kts 111°
2026-05-04 19:04 53.96977 56.70788 30585 ft 449 kts 111°
2026-05-04 19:05 53.96064 56.75836 30042 ft 446 kts 109°
2026-05-04 19:05 53.95303 56.80916 29405 ft 442 kts 107°
2026-05-04 19:05 53.94610 56.85975 28829 ft 438 kts 107°
2026-05-04 19:05 53.93938 56.90976 28262 ft 432 kts 107°
2026-05-04 19:06 53.93265 56.95925 27716 ft 427 kts 108°
2026-05-04 19:06 53.92588 57.00804 27183 ft 422 kts 108°
2026-05-04 19:06 53.91907 57.05624 26659 ft 418 kts 109°
2026-05-04 19:06 53.91225 57.10394 26127 ft 415 kts 109°
2026-05-04 19:07 53.90546 57.15125 25631 ft 411 kts 110°
2026-05-04 19:07 53.89871 57.19814 25108 ft 408 kts 110°
2026-05-04 19:07 53.89199 57.24471 24608 ft 405 kts 110°
2026-05-04 19:07 53.88530 57.29097 24113 ft 403 kts 110°
2026-05-04 19:08 53.87869 57.33673 23702 ft 398 kts 111°
2026-05-04 19:08 53.87212 57.38217 23158 ft 396 kts 111°
2026-05-04 19:08 53.86558 57.42734 22625 ft 393 kts 111°
2026-05-04 19:08 53.85907 57.47218 22113 ft 391 kts 111°
2026-05-04 19:09 53.85259 57.51667 21605 ft 388 kts 111°
2026-05-04 19:09 53.84613 57.56095 21108 ft 386 kts 110°
2026-05-04 19:09 53.83970 57.60485 20613 ft 383 kts 110°
2026-05-04 19:09 53.83327 57.64851 20122 ft 381 kts 110°
2026-05-04 19:10 53.82680 57.69195 19645 ft 380 kts 110°
2026-05-04 19:10 53.82032 57.73519 19165 ft 378 kts 110°
2026-05-04 19:10 53.81393 57.77764 18685 ft 376 kts 110°
2026-05-04 19:10 53.80750 57.82040 18213 ft 375 kts 110°
2026-05-04 19:11 53.80106 57.86304 17659 ft 373 kts 110°
2026-05-04 19:11 53.79464 57.90551 17140 ft 371 kts 110°
2026-05-04 19:11 53.78827 57.94761 16677 ft 368 kts 110°
2026-05-04 19:11 53.78192 57.98951 16186 ft 367 kts 110°
2026-05-04 19:12 53.77556 58.03120 15719 ft 366 kts 109°
2026-05-04 19:12 53.75956 58.11172 14723 ft 356 kts 128°
2026-05-04 19:12 53.74301 58.14155 14401 ft 341 kts 146°
2026-05-04 19:13 53.72296 58.16093 14158 ft 326 kts 159°
2026-05-04 19:13 53.70239 58.17591 13924 ft 321 kts 160°
2026-05-04 19:13 53.68178 58.19011 13681 ft 320 kts 161°
2026-05-04 19:13 53.66118 58.20421 13401 ft 320 kts 161°
2026-05-04 19:14 53.64061 58.21837 13113 ft 318 kts 160°
2026-05-04 19:14 53.62026 58.23252 12848 ft 316 kts 160°
2026-05-04 19:14 53.60000 58.24667 12464 ft 314 kts 160°
2026-05-04 19:14 53.57992 58.26077 12012 ft 312 kts 160°
2026-05-04 19:15 53.55988 58.27486 11489 ft 313 kts 160°
2026-05-04 19:15 53.53963 58.28909 10828 ft 319 kts 159°
2026-05-04 19:15 53.51893 58.30363 10318 ft 322 kts 159°
2026-05-04 19:15 53.49841 58.31808 9860 ft 319 kts 159°
2026-05-04 19:16 53.47856 58.33206 9755 ft 296 kts 159°
2026-05-04 19:16 53.46044 58.34482 9593 ft 278 kts 159°
2026-05-04 19:16 53.44251 58.35742 9293 ft 274 kts 159°
2026-05-04 19:16 53.42517 58.36957 8817 ft 275 kts 159°
2026-05-04 19:17 53.40739 58.38200 8111 ft 278 kts 159°
2026-05-04 19:17 53.38948 58.39453 7457 ft 281 kts 158°
2026-05-04 19:17 53.37180 58.40691 7290 ft 272 kts 159°
2026-05-04 19:17 53.35444 58.41904 7037 ft 268 kts 159°
2026-05-04 19:18 53.33727 58.43103 6780 ft 266 kts 158°
2026-05-04 19:18 53.32027 58.44289 6536 ft 264 kts 159°
2026-05-04 19:18 53.30330 58.45472 6290 ft 264 kts 159°
2026-05-04 19:18 53.28648 58.46643 6081 ft 259 kts 158°
2026-05-04 19:19 53.26992 58.47794 5801 ft 258 kts 158°
2026-05-04 19:19 53.25339 58.48942 5502 ft 257 kts 158°
2026-05-04 19:19 53.23766 58.50312 5191 ft 256 kts 139°
2026-05-04 19:19 53.22747 58.52672 4990 ft 249 kts 112°
2026-05-04 19:20 53.22211 58.55359 4886 ft 240 kts 104°
2026-05-04 19:20 53.21778 58.58003 4774 ft 233 kts 104°
2026-05-04 19:20 53.21357 58.60565 4669 ft 226 kts 104°
2026-05-04 19:20 53.20969 58.63057 4554 ft 218 kts 96°
2026-05-04 19:21 53.21195 58.65451 4443 ft 206 kts 60°
2026-05-04 19:21 53.22157 58.67135 4258 ft 201 kts 29°
2026-05-04 19:21 53.23426 58.67969 4085 ft 192 kts 16°
2026-05-04 19:21 53.24685 58.68537 3874 ft 184 kts 14°
2026-05-04 19:22 53.25881 58.69073 3684 ft 176 kts 15°
2026-05-04 19:22 53.27021 58.69613 3494 ft 164 kts 15°
2026-05-04 19:22 53.28074 58.70121 3321 ft 151 kts 15°
2026-05-04 19:22 53.29025 58.70583 3215 ft 134 kts 15°
2026-05-04 19:23 53.29889 58.71001 3048 ft 127 kts 15°
2026-05-04 19:23 53.30742 58.71414 2973 ft 129 kts 14°
2026-05-04 19:23 53.31610 58.71834 2809 ft 130 kts 14°
2026-05-04 19:23 53.32472 58.72252 2632 ft 128 kts 14°
2026-05-04 19:24 53.33327 58.72666 2464 ft 129 kts 14°
2026-05-04 19:24 53.34196 58.73087 2258 ft 131 kts 14°
2026-05-04 19:24 53.35075 58.73510 2066 ft 132 kts 14°
2026-05-04 19:24 53.35965 58.73936 1840 ft 134 kts 15°
2026-05-04 19:25 53.36852 58.74366 1635 ft 131 kts 14°
2026-05-04 19:25 53.37726 58.74790 1486 ft 131 kts 15°
2026-05-04 19:25 53.38578 58.75205 1426 ft 115 kts 17°
2026-05-04 19:25 53.39134 58.75477 1420 ft 52 kts 17°
2026-05-04 19:26 53.39279 58.75547 1420 ft 2 kts 15°
2026-05-04 19:26 53.39298 58.75555 1419 ft 4 kts 15°
2026-05-04 19:26 53.39336 58.75578 1419 ft 7 kts 28°
2026-05-04 19:26 53.39367 58.75645 1421 ft 7 kts 73°
2026-05-04 19:27 53.39360 58.75729 1416 ft 7 kts 104°
2026-05-04 19:27 53.39346 58.75811 1416 ft 7 kts 107°
2026-05-04 19:27 53.39331 58.75889 1416 ft 7 kts 107°
2026-05-04 19:27 53.39318 58.75958 1415 ft 5 kts 108°
2026-05-04 19:28 53.39299 58.76001 1415 ft 5 kts 154°
2026-05-04 19:28 53.39267 58.75995 1415 ft 5 kts 193°
2026-05-04 19:28 53.39251 58.75988 1417 ft 0 kts 195°
2026-05-04 19:29 53.39232 58.75979 1417 ft 5 kts 197°
2026-05-04 19:29 53.39202 58.75967 1419 ft 4 kts 180°
2026-05-04 19:29 53.39177 58.75997 1415 ft 5 kts 137°
2026-05-04 19:29 53.39147 58.76007 1418 ft 5 kts 192°
2026-05-04 19:30 53.39121 58.75995 1417 ft 1 kts 197°